Time,TemperatureF,DewpointF,PressureIn,WindDirection,WindDirectionDegrees,WindSpeedMPH,WindSpeedGustMPH,Humidity,HourlyPrecipIn,Conditions,Clouds,dailyrainin,SoftwareType,DateUTC
2013-03-04 00:00:00,20.0,15.7,30.10,NNE,12,0.0,2.0,83,0.00,,---,0.00,VWS V14.01,2013-03-04 05:00:00,
2013-03-04 00:05:00,20.1,15.8,30.10,North,5,0.0,0.0,83,0.00,,---,0.00,VWS V14.01,2013-03-04 05:05:00,
2013-03-04 00:10:00,20.3,16.0,30.10,North,360,0.0,0.0,83,0.00,,---,0.00,VWS V14.01,2013-03-04 05:10:00,
2013-03-04 00:16:00,20.2,15.9,30.10,North,360,0.0,2.0,83,0.00,,---,0.00,VWS V14.01,2013-03-04 05:16:00,
2013-03-04 00:20:00,20.3,16.0,30.10,North,360,0.0,0.0,83,0.00,,---,0.00,VWS V14.01,2013-03-04 05:20:00,
2013-03-04 00:25:00,20.3,16.0,30.10,North,360,0.0,0.0,83,0.00,,---,0.00,VWS V14.01,2013-03-04 05:25:00,
2013-03-04 00:31:00,20.5,16.2,30.10,North,360,0.0,0.0,83,0.00,,---,0.00,VWS V14.01,2013-03-04 05:31:00,
2013-03-04 00:36:00,20.6,16.3,30.10,North,355,0.0,1.0,83,0.00,,---,0.00,VWS V14.01,2013-03-04 05:36:00,
2013-03-04 00:41:00,20.7,16.1,30.10,NNE,15,1.0,3.0,82,0.00,,---,0.00,VWS V14.01,2013-03-04 05:41:00,
2013-03-04 00:46:00,20.7,16.1,30.11,North,360,0.0,0.0,82,0.00,,---,0.00,VWS V14.01,2013-03-04 05:46:00,
2013-03-04 00:51:00,20.7,16.1,30.11,North,360,0.0,0.0,82,0.00,,---,0.00,VWS V14.01,2013-03-04 05:51:00,
2013-03-04 00:56:00,20.6,16.0,30.10,NW,319,0.0,1.0,82,0.00,,---,0.00,VWS V14.01,2013-03-04 05:56:00,
2013-03-04 01:01:00,20.5,15.9,30.10,North,5,0.0,1.0,82,0.00,,---,0.00,VWS V14.01,2013-03-04 06:01:00,
2013-03-04 01:06:00,20.4,15.8,30.10,NNW,346,0.0,0.0,82,0.00,,---,0.00,VWS V14.01,2013-03-04 06:06:00,
2013-03-04 01:11:00,20.4,15.8,30.10,NNW,343,0.0,0.0,82,0.00,,---,0.00,VWS V14.01,2013-03-04 06:11:00,
2013-03-04 01:16:00,20.4,16.1,30.10,NW,322,0.0,1.0,83,0.00,,---,0.00,VWS V14.01,2013-03-04 06:16:00,
2013-03-04 01:21:00,20.3,16.0,30.10,NW,322,0.0,0.0,83,0.00,,---,0.00,VWS V14.01,2013-03-04 06:21:00,
2013-03-04 01:26:00,20.4,15.8,30.10,NNW,346,0.0,0.0,82,0.00,,---,0.00,VWS V14.01,2013-03-04 06:26:00,
2013-03-04 01:31:00,20.3,16.0,30.10,NNW,346,0.0,0.0,83,0.00,,---,0.00,VWS V14.01,2013-03-04 06:31:00,
2013-03-04 01:36:00,20.2,15.9,30.10,NNW,346,0.0,0.0,83,0.00,,---,0.00,VWS V14.01,2013-03-04 06:36:00,
2013-03-04 01:41:00,20.0,15.7,30.10,NNW,348,1.0,3.0,83,0.00,,---,0.00,VWS V14.01,2013-03-04 06:41:00,
2013-03-04 01:46:00,19.7,15.1,30.10,NNW,348,0.0,0.0,82,0.00,,---,0.00,VWS V14.01,2013-03-04 06:46:00,
2013-03-04 01:51:00,19.6,15.3,30.11,NNW,348,0.0,1.0,83,0.00,,---,0.00,VWS V14.01,2013-03-04 06:51:00,
2013-03-04 01:56:00,19.5,15.2,30.11,NNW,348,0.0,0.0,83,0.00,,---,0.00,VWS V14.01,2013-03-04 06:56:00,
2013-03-04 02:01:00,19.5,15.2,30.11,NNW,348,0.0,0.0,83,0.00,,---,0.00,VWS V14.01,2013-03-04 07:01:00,
2013-03-04 02:06:00,19.4,15.1,30.11,NNW,348,2.0,2.0,83,0.00,,---,0.00,VWS V14.01,2013-03-04 07:06:00,
2013-03-04 02:11:00,17.3,12.5,30.11,ENE,65,3.0,4.0,81,0.00,,---,0.00,VWS V14.01,2013-03-04 07:11:00,
2013-03-04 02:16:00,15.8,11.6,30.11,ENE,71,4.0,4.0,83,0.00,,---,0.00,VWS V14.01,2013-03-04 07:16:00,
2013-03-04 02:21:00,15.0,11.1,30.12,ENE,71,3.0,3.0,84,0.00,,---,0.00,VWS V14.01,2013-03-04 07:21:00,
2013-03-04 02:26:00,14.9,11.2,30.12,ENE,72,2.0,3.0,85,0.00,,---,0.00,VWS V14.01,2013-03-04 07:26:00,
2013-03-04 02:31:00,15.3,11.9,30.11,ENE,71,2.0,3.0,86,0.00,,---,0.00,VWS V14.01,2013-03-04 07:31:00,
2013-03-04 02:36:00,16.4,13.2,30.11,NE,48,2.0,4.0,87,0.00,,---,0.00,VWS V14.01,2013-03-04 07:36:00,
2013-03-04 02:41:00,16.4,12.9,30.11,NE,49,0.0,2.0,86,0.00,,---,0.00,VWS V14.01,2013-03-04 07:41:00,
2013-03-04 02:46:00,16.3,12.9,30.11,NE,49,3.0,3.0,86,0.00,,---,0.00,VWS V14.01,2013-03-04 07:46:00,
2013-03-04 02:51:00,16.3,12.9,30.11,NE,49,2.0,3.0,86,0.00,,---,0.00,VWS V14.01,2013-03-04 07:51:00,
2013-03-04 02:57:00,16.0,12.6,30.11,NE,48,2.0,2.0,86,0.00,,---,0.00,VWS V14.01,2013-03-04 07:57:00,
2013-03-04 03:02:00,15.7,12.3,30.11,NE,49,2.0,3.0,86,0.00,,---,0.00,VWS V14.01,2013-03-04 08:02:00,
2013-03-04 03:07:00,15.4,12.0,30.11,NE,49,1.0,2.0,86,0.00,,---,0.00,VWS V14.01,2013-03-04 08:07:00,
2013-03-04 03:12:00,15.2,11.8,30.11,NE,48,1.0,2.0,86,0.00,,---,0.00,VWS V14.01,2013-03-04 08:12:00,
2013-03-04 03:17:00,14.8,11.4,30.11,NE,49,2.0,3.0,86,0.00,,---,0.00,VWS V14.01,2013-03-04 08:17:00,
2013-03-04 03:22:00,14.3,10.9,30.11,NE,49,2.0,2.0,86,0.00,,---,0.00,VWS V14.01,2013-03-04 08:22:00,
2013-03-04 03:27:00,13.9,10.5,30.11,NE,49,2.0,2.0,86,0.00,,---,0.00,VWS V14.01,2013-03-04 08:27:00,
2013-03-04 03:32:00,13.9,10.8,30.11,NE,48,2.0,2.0,87,0.00,,---,0.00,VWS V14.01,2013-03-04 08:32:00,
2013-03-04 03:37:00,14.4,11.5,30.11,NE,49,1.0,2.0,88,0.00,,---,0.00,VWS V14.01,2013-03-04 08:37:00,
2013-03-04 03:42:00,14.7,11.8,30.11,NE,49,0.0,0.0,88,0.00,,---,0.00,VWS V14.01,2013-03-04 08:42:00,
2013-03-04 03:47:00,15.0,12.1,30.11,NE,48,0.0,0.0,88,0.00,,---,0.00,VWS V14.01,2013-03-04 08:47:00,
2013-03-04 03:52:00,15.1,12.2,30.11,NE,49,1.0,1.0,88,0.00,,---,0.00,VWS V14.01,2013-03-04 08:52:00,
2013-03-04 03:57:00,15.0,12.1,30.11,NE,48,1.0,2.0,88,0.00,,---,0.00,VWS V14.01,2013-03-04 08:57:00,
2013-03-04 04:02:00,15.0,12.1,30.11,NE,49,1.0,2.0,88,0.00,,---,0.00,VWS V14.01,2013-03-04 09:02:00,
2013-03-04 04:07:00,14.9,12.0,30.11,NE,48,0.0,0.0,88,0.00,,---,0.00,VWS V14.01,2013-03-04 09:07:00,
2013-03-04 04:12:00,14.6,11.7,30.11,NE,49,0.0,0.0,88,0.00,,---,0.00,VWS V14.01,2013-03-04 09:12:00,
2013-03-04 04:17:00,14.3,11.4,30.12,NE,48,0.0,0.0,88,0.00,,---,0.00,VWS V14.01,2013-03-04 09:17:00,
2013-03-04 04:22:00,14.3,11.4,30.12,NE,48,0.0,0.0,88,0.00,,---,0.00,VWS V14.01,2013-03-04 09:22:00,
2013-03-04 04:27:00,14.2,11.3,30.12,NE,48,0.0,0.0,88,0.00,,---,0.00,VWS V14.01,2013-03-04 09:27:00,
2013-03-04 04:32:00,14.1,11.5,30.12,NE,49,0.0,0.0,89,0.00,,---,0.00,VWS V14.01,2013-03-04 09:32:00,
2013-03-04 04:37:00,14.2,11.6,30.13,NE,49,0.0,0.0,89,0.00,,---,0.00,VWS V14.01,2013-03-04 09:37:00,
2013-03-04 04:42:00,14.3,11.7,30.13,NE,48,0.0,0.0,89,0.00,,---,0.00,VWS V14.01,2013-03-04 09:42:00,
2013-03-04 04:47:00,14.1,11.5,30.13,NE,49,0.0,0.0,89,0.00,,---,0.00,VWS V14.01,2013-03-04 09:47:00,
2013-03-04 04:52:00,13.9,11.3,30.13,NE,48,0.0,0.0,89,0.00,,---,0.00,VWS V14.01,2013-03-04 09:52:00,
2013-03-04 04:57:00,13.7,11.1,30.14,NE,48,2.0,2.0,89,0.00,,---,0.00,VWS V14.01,2013-03-04 09:57:00,
2013-03-04 05:02:00,13.7,11.1,30.14,NE,49,0.0,1.0,89,0.00,,---,0.00,VWS V14.01,2013-03-04 10:02:00,
2013-03-04 05:07:00,13.7,11.1,30.14,NE,49,0.0,0.0,89,0.00,,---,0.00,VWS V14.01,2013-03-04 10:07:00,
2013-03-04 05:12:00,13.8,11.2,30.14,NE,49,0.0,0.0,89,0.00,,---,0.00,VWS V14.01,2013-03-04 10:12:00,
2013-03-04 05:17:00,13.8,11.2,30.14,NE,49,0.0,0.0,89,0.00,,---,0.00,VWS V14.01,2013-03-04 10:17:00,
2013-03-04 05:22:00,13.7,11.1,30.14,NE,49,0.0,0.0,89,0.00,,---,0.00,VWS V14.01,2013-03-04 10:22:00,
2013-03-04 05:27:00,13.6,11.0,30.15,NE,49,0.0,0.0,89,0.00,,---,0.00,VWS V14.01,2013-03-04 10:27:00,
2013-03-04 05:32:00,13.7,11.1,30.15,NE,48,0.0,0.0,89,0.00,,---,0.00,VWS V14.01,2013-03-04 10:32:00,
2013-03-04 05:37:00,13.6,11.0,30.15,NE,49,2.0,3.0,89,0.00,,---,0.00,VWS V14.01,2013-03-04 10:37:00,
2013-03-04 05:42:00,12.1,9.5,30.15,NE,49,2.0,3.0,89,0.00,,---,0.00,VWS V14.01,2013-03-04 10:42:00,
2013-03-04 05:47:00,11.3,8.4,30.15,NE,50,3.0,3.0,88,0.00,,---,0.00,VWS V14.01,2013-03-04 10:47:00,
2013-03-04 05:52:00,10.8,7.9,30.15,NE,49,3.0,3.0,88,0.00,,---,0.00,VWS V14.01,2013-03-04 10:52:00,
2013-03-04 05:57:00,10.3,7.5,30.15,NE,51,2.0,3.0,88,0.00,,---,0.00,VWS V14.01,2013-03-04 10:57:00,
2013-03-04 06:02:00,9.9,7.1,30.15,ENE,59,3.0,4.0,88,0.00,,---,0.00,VWS V14.01,2013-03-04 11:02:00,
2013-03-04 06:07:00,9.9,7.3,30.14,ENE,63,3.0,4.0,89,0.00,,---,0.00,VWS V14.01,2013-03-04 11:07:00,
2013-03-04 06:12:00,9.6,7.0,30.15,East,80,4.0,5.0,89,0.00,,---,0.00,VWS V14.01,2013-03-04 11:12:00,
2013-03-04 06:17:00,9.2,6.6,30.15,East,82,3.0,4.0,89,0.00,,---,0.00,VWS V14.01,2013-03-04 11:17:00,
2013-03-04 06:22:00,9.1,6.5,30.15,East,82,3.0,4.0,89,0.00,,---,0.00,VWS V14.01,2013-03-04 11:22:00,
2013-03-04 06:28:00,9.2,6.6,30.15,East,82,3.0,3.0,89,0.00,,---,0.00,VWS V14.01,2013-03-04 11:28:00,
2013-03-04 06:33:00,9.4,6.8,30.15,East,82,1.0,2.0,89,0.00,,---,0.00,VWS V14.01,2013-03-04 11:33:00,
2013-03-04 06:38:00,9.6,7.0,30.15,East,82,0.0,0.0,89,0.00,,---,0.00,VWS V14.01,2013-03-04 11:38:00,
2013-03-04 06:43:00,9.6,7.0,30.15,East,82,1.0,2.0,89,0.00,,---,0.00,VWS V14.01,2013-03-04 11:43:00,
2013-03-04 06:48:00,9.8,7.2,30.15,East,82,0.0,0.0,89,0.00,,---,0.00,VWS V14.01,2013-03-04 11:48:00,
2013-03-04 06:53:00,9.9,7.3,30.16,East,82,0.0,0.0,89,0.00,,---,0.00,VWS V14.01,2013-03-04 11:53:00,
2013-03-04 06:58:00,9.9,7.3,30.16,East,82,0.0,3.0,89,0.00,,---,0.00,VWS V14.01,2013-03-04 11:58:00,
2013-03-04 07:03:00,9.9,7.6,30.15,East,82,0.0,2.0,90,0.00,,---,0.00,VWS V14.01,2013-03-04 12:03:00,
2013-03-04 07:08:00,10.0,7.7,30.16,East,82,0.0,1.0,90,0.00,,---,0.00,VWS V14.01,2013-03-04 12:08:00,
2013-03-04 07:13:00,10.1,7.8,30.16,East,82,1.0,2.0,90,0.00,,---,0.00,VWS V14.01,2013-03-04 12:13:00,
2013-03-04 07:18:00,10.3,7.7,30.16,East,82,0.0,2.0,89,0.00,,---,0.00,VWS V14.01,2013-03-04 12:18:00,
2013-03-04 07:23:00,10.5,7.9,30.16,East,82,0.0,0.0,89,0.00,,---,0.00,VWS V14.01,2013-03-04 12:23:00,
2013-03-04 07:28:00,10.6,8.2,30.16,East,82,0.0,2.0,90,0.00,,---,0.00,VWS V14.01,2013-03-04 12:28:00,
2013-03-04 07:33:00,10.8,8.4,30.16,East,82,0.0,0.0,90,0.00,,---,0.00,VWS V14.01,2013-03-04 12:33:00,
2013-03-04 07:38:00,11.0,8.6,30.16,East,82,0.0,0.0,90,0.00,,---,0.00,VWS V14.01,2013-03-04 12:38:00,
2013-03-04 07:43:00,11.2,8.9,30.16,East,82,0.0,0.0,90,0.00,,---,0.00,VWS V14.01,2013-03-04 12:43:00,
2013-03-04 07:49:00,11.5,9.1,30.16,East,82,0.0,0.0,90,0.00,,---,0.00,VWS V14.01,2013-03-04 12:49:00,
2013-03-04 07:54:00,11.9,9.5,30.16,East,82,0.0,0.0,90,0.00,,---,0.00,VWS V14.01,2013-03-04 12:54:00,
2013-03-04 07:59:00,12.1,9.5,30.16,East,82,0.0,0.0,89,0.00,,---,0.00,VWS V14.01,2013-03-04 12:59:00,
2013-03-04 08:04:00,12.2,9.6,30.17,East,82,0.0,0.0,89,0.00,,---,0.00,VWS V14.01,2013-03-04 13:04:00,
2013-03-04 08:09:00,12.3,9.7,30.16,East,82,0.0,0.0,89,0.00,,---,0.00,VWS V14.01,2013-03-04 13:09:00,
2013-03-04 08:14:00,12.5,9.9,30.17,East,82,0.0,0.0,89,0.00,,---,0.00,VWS V14.01,2013-03-04 13:14:00,
2013-03-04 08:19:00,12.7,10.1,30.17,East,82,0.0,0.0,89,0.00,,---,0.00,VWS V14.01,2013-03-04 13:19:00,
2013-03-04 08:24:00,12.8,10.2,30.17,East,82,0.0,0.0,89,0.00,,---,0.00,VWS V14.01,2013-03-04 13:24:00,
2013-03-04 08:29:00,13.0,10.4,30.17,East,82,0.0,0.0,89,0.00,,---,0.00,VWS V14.01,2013-03-04 13:29:00,
2013-03-04 08:34:00,13.0,10.4,30.17,East,82,0.0,0.0,89,0.00,,---,0.00,VWS V14.01,2013-03-04 13:34:00,
2013-03-04 08:39:00,13.0,10.1,30.17,East,82,0.0,0.0,88,0.00,,---,0.00,VWS V14.01,2013-03-04 13:39:00,
2013-03-04 08:44:00,13.1,10.5,30.17,East,82,0.0,0.0,89,0.00,,---,0.00,VWS V14.01,2013-03-04 13:44:00,
2013-03-04 08:49:00,13.2,10.3,30.17,East,82,0.0,0.0,88,0.00,,---,0.00,VWS V14.01,2013-03-04 13:49:00,
2013-03-04 08:54:00,13.4,10.5,30.17,East,82,0.0,0.0,88,0.00,,---,0.00,VWS V14.01,2013-03-04 13:54:00,
2013-03-04 08:59:00,13.5,10.6,30.17,East,82,0.0,2.0,88,0.00,,---,0.00,VWS V14.01,2013-03-04 13:59:00,
2013-03-04 09:04:00,13.5,10.4,30.17,East,82,0.0,2.0,87,0.00,,---,0.00,VWS V14.01,2013-03-04 14:04:00,
2013-03-04 09:09:00,13.7,10.6,30.17,East,82,0.0,2.0,87,0.00,,---,0.00,VWS V14.01,2013-03-04 14:09:00,
2013-03-04 09:14:00,14.0,10.9,30.17,East,82,0.0,0.0,87,0.00,,---,0.00,VWS V14.01,2013-03-04 14:14:00,
2013-03-04 09:19:00,14.2,10.8,30.17,East,82,0.0,0.0,86,0.00,,---,0.00,VWS V14.01,2013-03-04 14:19:00,
2013-03-04 09:24:00,14.5,11.1,30.17,East,82,0.0,0.0,86,0.00,,---,0.00,VWS V14.01,2013-03-04 14:24:00,
2013-03-04 09:29:00,14.8,11.1,30.17,East,82,1.0,2.0,85,0.00,,---,0.00,VWS V14.01,2013-03-04 14:29:00,
2013-03-04 09:34:00,15.0,11.1,30.17,East,81,1.0,3.0,84,0.00,,---,0.00,VWS V14.01,2013-03-04 14:34:00,
2013-03-04 09:39:00,15.1,11.1,30.17,East,80,0.0,2.0,84,0.00,,---,0.00,VWS V14.01,2013-03-04 14:39:00,
2013-03-04 09:44:00,15.1,10.9,30.17,ENE,60,3.0,3.0,83,0.00,,---,0.00,VWS V14.01,2013-03-04 14:44:00,
2013-03-04 09:49:00,15.3,11.1,30.17,NNE,29,3.0,5.0,83,0.00,,---,0.00,VWS V14.01,2013-03-04 14:49:00,
2013-03-04 09:54:00,15.7,11.5,30.17,NNE,18,5.0,6.0,83,0.00,,---,0.00,VWS V14.01,2013-03-04 14:54:00,
2013-03-04 09:59:00,16.1,11.9,30.17,NNE,17,8.0,9.0,83,0.00,,---,0.00,VWS V14.01,2013-03-04 14:59:00,
2013-03-04 10:04:00,16.4,11.9,30.17,NNE,15,6.0,9.0,82,0.00,,---,0.00,VWS V14.01,2013-03-04 15:04:00,
2013-03-04 10:09:00,16.7,12.2,30.17,North,10,9.0,12.0,82,0.00,,---,0.00,VWS V14.01,2013-03-04 15:09:00,
2013-03-04 10:14:00,16.9,12.4,30.17,North,10,6.0,12.0,82,0.00,,---,0.00,VWS V14.01,2013-03-04 15:14:00,
2013-03-04 10:19:00,17.1,12.3,30.17,NNE,15,6.0,10.0,81,0.00,,---,0.00,VWS V14.01,2013-03-04 15:19:00,
2013-03-04 10:24:00,17.1,12.3,30.17,North,9,9.0,11.0,81,0.00,,---,0.00,VWS V14.01,2013-03-04 15:24:00,
2013-03-04 10:29:00,17.2,12.4,30.17,NNE,25,7.0,10.0,81,0.00,,---,0.00,VWS V14.01,2013-03-04 15:29:00,
2013-03-04 10:34:00,17.3,12.5,30.17,NNE,15,7.0,9.0,81,0.00,,---,0.00,VWS V14.01,2013-03-04 15:34:00,
2013-03-04 10:39:00,17.3,12.5,30.18,North,11,8.0,11.0,81,0.00,,---,0.00,VWS V14.01,2013-03-04 15:39:00,
2013-03-04 10:44:00,17.7,12.9,30.17,NNW,342,2.0,7.0,81,0.00,,---,0.00,VWS V14.01,2013-03-04 15:44:00,
2013-03-04 10:49:00,18.1,13.0,30.17,NNE,13,1.0,11.0,80,0.00,,---,0.00,VWS V14.01,2013-03-04 15:49:00,
2013-03-04 10:54:00,18.2,13.1,30.17,NNE,13,5.0,11.0,80,0.00,,---,0.00,VWS V14.01,2013-03-04 15:54:00,
2013-03-04 10:59:00,18.2,13.1,30.17,NNE,20,7.0,11.0,80,0.00,,---,0.00,VWS V14.01,2013-03-04 15:59:00,
2013-03-04 11:04:00,18.1,12.7,30.17,NNE,16,8.0,12.0,79,0.00,,---,0.00,VWS V14.01,2013-03-04 16:04:00,
2013-03-04 11:10:00,18.3,13.2,30.18,North,9,5.0,9.0,80,0.00,,---,0.00,VWS V14.01,2013-03-04 16:10:00,
2013-03-04 11:15:00,18.6,13.2,30.18,NNE,14,3.0,9.0,79,0.00,,---,0.00,VWS V14.01,2013-03-04 16:15:00,
2013-03-04 11:20:00,19.0,13.6,30.18,NNE,17,6.0,10.0,79,0.00,,---,0.00,VWS V14.01,2013-03-04 16:20:00,
2013-03-04 11:25:00,19.1,13.7,30.18,North,10,4.0,7.0,79,0.00,,---,0.00,VWS V14.01,2013-03-04 16:25:00,
2013-03-04 11:30:00,19.5,13.8,30.17,NNE,30,0.0,5.0,78,0.00,,---,0.00,VWS V14.01,2013-03-04 16:30:00,
2013-03-04 11:35:00,19.7,14.0,30.17,NNE,19,0.0,3.0,78,0.00,,---,0.00,VWS V14.01,2013-03-04 16:35:00,
2013-03-04 11:40:00,19.9,13.9,30.17,WNW,295,1.0,5.0,77,0.00,,---,0.00,VWS V14.01,2013-03-04 16:40:00,
2013-03-04 11:45:00,20.2,14.2,30.17,NNW,341,0.0,4.0,77,0.00,,---,0.00,VWS V14.01,2013-03-04 16:45:00,
2013-03-04 11:50:00,20.4,14.1,30.17,North,11,1.0,4.0,76,0.00,,---,0.00,VWS V14.01,2013-03-04 16:50:00,
2013-03-04 11:55:00,20.0,13.7,30.17,North,11,1.0,7.0,76,0.00,,---,0.00,VWS V14.01,2013-03-04 16:55:00,
2013-03-04 12:00:00,20.4,14.4,30.17,NNE,13,0.0,3.0,77,0.00,,---,0.00,VWS V14.01,2013-03-04 17:00:00,
2013-03-04 12:05:00,20.3,14.3,30.17,North,5,1.0,6.0,77,0.00,,---,0.00,VWS V14.01,2013-03-04 17:05:00,
2013-03-04 12:10:00,20.1,14.1,30.17,NNE,15,2.0,6.0,77,0.00,,---,0.00,VWS V14.01,2013-03-04 17:10:00,
2013-03-04 12:15:00,20.1,14.1,30.17,NNE,14,4.0,10.0,77,0.00,,---,0.00,VWS V14.01,2013-03-04 17:15:00,
2013-03-04 12:20:00,20.0,14.0,30.17,NNE,16,4.0,7.0,77,0.00,,---,0.00,VWS V14.01,2013-03-04 17:20:00,
2013-03-04 12:25:00,20.4,14.4,30.17,North,355,0.0,4.0,77,0.00,,---,0.00,VWS V14.01,2013-03-04 17:25:00,
2013-03-04 12:30:00,20.9,14.5,30.17,NW,309,1.0,3.0,76,0.00,,---,0.00,VWS V14.01,2013-03-04 17:30:00,
2013-03-04 12:35:00,21.2,14.8,30.17,North,360,0.0,6.0,76,0.00,,---,0.00,VWS V14.01,2013-03-04 17:35:00,
2013-03-04 12:40:00,21.4,14.7,30.17,NE,37,0.0,3.0,75,0.00,,---,0.00,VWS V14.01,2013-03-04 17:40:00,
2013-03-04 12:45:00,21.5,14.5,30.17,NNE,29,0.0,6.0,74,0.00,,---,0.00,VWS V14.01,2013-03-04 17:45:00,
2013-03-04 12:50:00,22.0,15.0,30.16,NNW,331,0.0,2.0,74,0.00,,---,0.00,VWS V14.01,2013-03-04 17:50:00,
2013-03-04 12:55:00,21.9,14.6,30.16,NNE,17,5.0,5.0,73,0.00,,---,0.00,VWS V14.01,2013-03-04 17:55:00,
2013-03-04 13:00:00,21.6,14.3,30.16,NNE,19,0.0,5.0,73,0.00,,---,0.00,VWS V14.01,2013-03-04 18:00:00,
2013-03-04 13:05:00,21.4,14.1,30.16,North,349,0.0,5.0,73,0.00,,---,0.00,VWS V14.01,2013-03-04 18:05:00,
2013-03-04 13:10:00,21.8,14.5,30.16,North,11,2.0,4.0,73,0.00,,---,0.00,VWS V14.01,2013-03-04 18:10:00,
2013-03-04 13:15:00,22.0,14.7,30.16,NNE,19,0.0,6.0,73,0.00,,---,0.00,VWS V14.01,2013-03-04 18:15:00,
2013-03-04 13:20:00,21.7,14.4,30.16,NNE,14,2.0,5.0,73,0.00,,---,0.00,VWS V14.01,2013-03-04 18:20:00,
2013-03-04 13:25:00,21.8,14.8,30.15,NNE,28,1.0,4.0,74,0.00,,---,0.00,VWS V14.01,2013-03-04 18:25:00,
2013-03-04 13:29:00,22.2,15.2,30.15,East,95,0.0,1.0,74,0.00,,---,0.00,VWS V14.01,2013-03-04 18:29:00,
2013-03-04 13:30:00,22.2,15.2,30.15,ENE,72,0.0,1.0,74,0.00,,---,0.00,VWS V14.01,2013-03-04 18:30:00,
2013-03-04 13:35:00,22.5,15.2,30.15,NNW,329,0.0,4.0,73,0.00,,---,0.00,VWS V14.01,2013-03-04 18:35:00,
2013-03-04 13:40:00,22.3,15.0,30.15,NNE,15,2.0,6.0,73,0.00,,---,0.00,VWS V14.01,2013-03-04 18:40:00,
2013-03-04 13:45:00,21.9,14.6,30.15,NNE,13,0.0,6.0,73,0.00,,---,0.00,VWS V14.01,2013-03-04 18:45:00,
2013-03-04 13:50:00,22.2,14.6,30.15,NNW,337,0.0,3.0,72,0.00,,---,0.00,VWS V14.01,2013-03-04 18:50:00,
2013-03-04 13:55:00,22.4,14.8,30.15,North,360,0.0,4.0,72,0.00,,---,0.00,VWS V14.01,2013-03-04 18:55:00,
2013-03-04 14:00:00,22.7,14.4,30.14,NNW,341,0.0,4.0,70,0.00,,---,0.00,VWS V14.01,2013-03-04 19:00:00,
2013-03-04 14:05:00,22.6,14.3,30.15,North,360,0.0,3.0,70,0.00,,---,0.00,VWS V14.01,2013-03-04 19:05:00,
2013-03-04 14:10:00,22.7,14.4,30.14,NW,326,3.0,3.0,70,0.00,,---,0.00,VWS V14.01,2013-03-04 19:10:00,
2013-03-04 14:15:00,23.4,14.8,30.14,North,355,0.0,5.0,69,0.00,,---,0.00,VWS V14.01,2013-03-04 19:15:00,
2013-03-04 14:20:00,23.7,14.7,30.14,North,355,1.0,3.0,68,0.00,,---,0.00,VWS V14.01,2013-03-04 19:20:00,
2013-03-04 14:25:00,23.0,14.0,30.14,NNE,15,2.0,6.0,68,0.00,,---,0.00,VWS V14.01,2013-03-04 19:25:00,
2013-03-04 14:30:00,23.1,14.8,30.14,WNW,291,3.0,6.0,70,0.00,,---,0.00,VWS V14.01,2013-03-04 19:30:00,
2013-03-04 14:35:00,23.5,15.2,30.14,WNW,297,3.0,3.0,70,0.00,,---,0.00,VWS V14.01,2013-03-04 19:35:00,
2013-03-04 14:40:00,23.7,15.0,30.14,North,5,0.0,3.0,69,0.00,,---,0.00,VWS V14.01,2013-03-04 19:40:00,
2013-03-04 14:45:00,23.4,15.1,30.14,NNE,13,3.0,7.0,70,0.00,,---,0.00,VWS V14.01,2013-03-04 19:45:00,
2013-03-04 14:50:00,22.9,15.2,30.14,NW,323,0.0,4.0,72,0.00,,---,0.00,VWS V14.01,2013-03-04 19:50:00,
2013-03-04 14:55:00,22.9,15.6,30.14,NNE,18,3.0,4.0,73,0.00,,---,0.00,VWS V14.01,2013-03-04 19:55:00,
2013-03-04 15:00:00,22.6,15.3,30.14,NNE,17,6.0,8.0,73,0.00,,---,0.00,VWS V14.01,2013-03-04 20:00:00,
2013-03-04 15:05:00,22.4,15.1,30.14,NNE,25,2.0,9.0,73,0.00,,---,0.00,VWS V14.01,2013-03-04 20:05:00,
2013-03-04 15:10:00,22.6,15.3,30.14,North,9,0.0,8.0,73,0.00,,---,0.00,VWS V14.01,2013-03-04 20:10:00,
2013-03-04 15:15:00,22.6,14.9,30.14,NNE,22,0.0,5.0,72,0.00,,---,0.00,VWS V14.01,2013-03-04 20:15:00,
2013-03-04 15:20:00,22.4,14.8,30.14,NNE,14,4.0,11.0,72,0.00,,---,0.00,VWS V14.01,2013-03-04 20:20:00,
2013-03-04 15:25:00,22.5,14.9,30.14,North,360,2.0,7.0,72,0.00,,---,0.00,VWS V14.01,2013-03-04 20:25:00,
2013-03-04 15:30:00,22.5,14.2,30.14,NNE,15,6.0,6.0,70,0.00,,---,0.00,VWS V14.01,2013-03-04 20:30:00,
2013-03-04 15:35:00,22.3,14.0,30.14,NNE,13,2.0,6.0,70,0.00,,---,0.00,VWS V14.01,2013-03-04 20:35:00,
2013-03-04 15:40:00,22.3,14.7,30.14,North,360,0.0,7.0,72,0.00,,---,0.00,VWS V14.01,2013-03-04 20:40:00,
2013-03-04 15:45:00,22.4,14.8,30.14,NNE,14,0.0,5.0,72,0.00,,---,0.00,VWS V14.01,2013-03-04 20:45:00,
2013-03-04 15:50:00,22.8,15.1,30.14,WNW,299,1.0,5.0,72,0.00,,---,0.00,VWS V14.01,2013-03-04 20:50:00,
2013-03-04 15:55:00,23.2,15.2,30.14,NNW,341,2.0,2.0,71,0.00,,---,0.00,VWS V14.01,2013-03-04 20:55:00,
2013-03-04 16:00:00,23.7,15.0,30.14,WNW,300,0.0,4.0,69,0.00,,---,0.00,VWS V14.01,2013-03-04 21:00:00,
2013-03-04 16:05:00,24.0,15.0,30.14,NNW,346,2.0,4.0,68,0.00,,---,0.00,VWS V14.01,2013-03-04 21:05:00,
2013-03-04 16:10:00,23.6,12.9,30.14,North,355,0.0,3.0,63,0.00,,---,0.00,VWS V14.01,2013-03-04 21:10:00,
2013-03-04 16:15:00,23.8,13.4,30.14,NW,308,3.0,4.0,64,0.00,,---,0.00,VWS V14.01,2013-03-04 21:15:00,
2013-03-04 16:20:00,24.2,14.1,30.14,NW,312,0.0,0.0,65,0.00,,---,0.00,VWS V14.01,2013-03-04 21:20:00,
2013-03-04 16:25:00,24.1,13.7,30.14,North,360,0.0,0.0,64,0.00,,---,0.00,VWS V14.01,2013-03-04 21:25:00,
2013-03-04 16:30:00,24.0,13.2,30.14,North,355,0.0,0.0,63,0.00,,---,0.00,VWS V14.01,2013-03-04 21:30:00,
2013-03-04 16:35:00,23.9,13.1,30.13,NNE,22,1.0,1.0,63,0.00,,---,0.00,VWS V14.01,2013-03-04 21:35:00,
2013-03-04 16:40:00,23.7,13.0,30.13,NNE,24,0.0,0.0,63,0.00,,---,0.00,VWS V14.01,2013-03-04 21:40:00,
2013-03-04 16:45:00,23.6,13.2,30.13,NNE,17,2.0,3.0,64,0.00,,---,0.00,VWS V14.01,2013-03-04 21:45:00,
2013-03-04 16:50:00,23.7,12.2,30.13,North,5,0.0,1.0,61,0.00,,---,0.00,VWS V14.01,2013-03-04 21:50:00,
2013-03-04 16:55:00,23.8,11.6,30.13,NNE,15,0.0,2.0,59,0.00,,---,0.00,VWS V14.01,2013-03-04 21:55:00,
2013-03-04 17:00:00,23.9,11.7,30.14,NNE,19,0.0,1.0,59,0.00,,---,0.00,VWS V14.01,2013-03-04 22:00:00,
2013-03-04 17:05:00,23.8,11.6,30.14,NNE,19,0.0,0.0,59,0.00,,---,0.00,VWS V14.01,2013-03-04 22:05:00,
2013-03-04 17:10:00,23.9,11.3,30.14,North,10,0.0,0.0,58,0.00,,---,0.00,VWS V14.01,2013-03-04 22:10:00,
2013-03-04 17:15:00,24.1,11.1,30.14,North,360,0.0,0.0,57,0.00,,---,0.00,VWS V14.01,2013-03-04 22:15:00,
2013-03-04 17:20:00,24.3,11.3,30.14,NNE,13,0.0,0.0,57,0.00,,---,0.00,VWS V14.01,2013-03-04 22:20:00,
2013-03-04 17:25:00,24.5,10.2,30.14,North,10,2.0,2.0,54,0.00,,---,0.00,VWS V14.01,2013-03-04 22:25:00,
2013-03-04 17:31:00,24.5,9.8,30.14,North,5,0.0,1.0,53,0.00,,---,0.00,VWS V14.01,2013-03-04 22:31:00,
2013-03-04 17:36:00,24.3,10.5,30.14,North,11,0.0,0.0,55,0.00,,---,0.00,VWS V14.01,2013-03-04 22:36:00,
2013-03-04 17:41:00,24.1,9.9,30.14,NNE,13,3.0,6.0,54,0.00,,---,0.00,VWS V14.01,2013-03-04 22:41:00,
2013-03-04 17:46:00,24.1,9.9,30.13,NNE,14,0.0,3.0,54,0.00,,---,0.00,VWS V14.01,2013-03-04 22:46:00,
2013-03-04 17:51:00,24.2,10.0,30.14,NNE,15,2.0,2.0,54,0.00,,---,0.00,VWS V14.01,2013-03-04 22:51:00,
2013-03-04 17:56:00,24.4,10.1,30.14,NNE,15,0.0,0.0,54,0.00,,---,0.00,VWS V14.01,2013-03-04 22:56:00,
2013-03-04 18:01:00,24.6,10.3,30.14,NNE,15,0.0,0.0,54,0.00,,---,0.00,VWS V14.01,2013-03-04 23:01:00,
2013-03-04 18:06:00,24.7,10.0,30.14,North,9,0.0,3.0,53,0.00,,---,0.00,VWS V14.01,2013-03-04 23:06:00,
2013-03-04 18:11:00,24.8,10.1,30.14,North,355,1.0,3.0,53,0.00,,---,0.00,VWS V14.01,2013-03-04 23:11:00,
2013-03-04 18:16:00,24.8,10.1,30.14,North,355,0.0,0.0,53,0.00,,---,0.00,VWS V14.01,2013-03-04 23:16:00,
2013-03-04 18:21:00,24.7,10.4,30.14,North,355,0.0,0.0,54,0.00,,---,0.00,VWS V14.01,2013-03-04 23:21:00,
2013-03-04 18:26:00,24.7,11.6,30.14,NNW,345,0.0,2.0,57,0.00,,---,0.00,VWS V14.01,2013-03-04 23:26:00,
2013-03-04 18:31:00,24.5,12.2,30.14,NNW,345,0.0,2.0,59,0.00,,---,0.00,VWS V14.01,2013-03-04 23:31:00,
2013-03-04 18:36:00,24.3,12.4,30.14,NNW,345,0.0,0.0,60,0.00,,---,0.00,VWS V14.01,2013-03-04 23:36:00,
2013-03-04 18:41:00,24.1,12.2,30.14,NNW,345,0.0,0.0,60,0.00,,---,0.00,VWS V14.01,2013-03-04 23:41:00,
2013-03-04 18:46:00,23.9,12.4,30.14,NNW,345,0.0,1.0,61,0.00,,---,0.00,VWS V14.01,2013-03-04 23:46:00,
2013-03-04 18:51:00,23.8,12.7,30.14,NNW,345,0.0,0.0,62,0.00,,---,0.00,VWS V14.01,2013-03-04 23:51:00,
2013-03-04 18:56:00,23.6,12.9,30.14,NNW,345,0.0,0.0,63,0.00,,---,0.00,VWS V14.01,2013-03-04 23:56:00,
2013-03-04 19:01:00,23.3,12.9,30.14,NNW,345,0.0,0.0,64,0.00,,---,0.00,VWS V14.01,2013-03-05 00:01:00,
2013-03-04 19:06:00,23.0,13.0,30.15,NNW,345,0.0,0.0,65,0.00,,---,0.00,VWS V14.01,2013-03-05 00:06:00,
2013-03-04 19:11:00,22.8,13.2,30.15,NNW,345,0.0,0.0,66,0.00,,---,0.00,VWS V14.01,2013-03-05 00:11:00,
2013-03-04 19:16:00,22.5,13.2,30.15,NNW,345,0.0,0.0,67,0.00,,---,0.00,VWS V14.01,2013-03-05 00:16:00,
2013-03-04 19:21:00,22.1,13.5,30.15,NNW,345,0.0,0.0,69,0.00,,---,0.00,VWS V14.01,2013-03-05 00:21:00,
2013-03-04 19:26:00,21.9,13.6,30.15,NNW,345,0.0,0.0,70,0.00,,---,0.00,VWS V14.01,2013-03-05 00:26:00,
2013-03-04 19:31:00,21.7,13.8,30.15,NNW,345,0.0,0.0,71,0.00,,---,0.00,VWS V14.01,2013-03-05 00:31:00,
2013-03-04 19:36:00,21.6,13.7,30.15,NNW,345,0.0,0.0,71,0.00,,---,0.00,VWS V14.01,2013-03-05 00:36:00,
2013-03-04 19:41:00,21.4,13.8,30.15,NNW,345,0.0,0.0,72,0.00,,---,0.00,VWS V14.01,2013-03-05 00:41:00,
2013-03-04 19:46:00,21.2,13.9,30.15,NNW,345,0.0,0.0,73,0.00,,---,0.00,VWS V14.01,2013-03-05 00:46:00,
2013-03-04 19:51:00,21.1,14.1,30.15,NNW,345,0.0,0.0,74,0.00,,---,0.00,VWS V14.01,2013-03-05 00:51:00,
2013-03-04 19:56:00,21.1,14.1,30.15,NNW,345,0.0,0.0,74,0.00,,---,0.00,VWS V14.01,2013-03-05 00:56:00,
2013-03-04 20:01:00,21.2,14.2,30.15,NNW,345,0.0,0.0,74,0.00,,---,0.00,VWS V14.01,2013-03-05 01:01:00,
2013-03-04 20:06:00,21.4,14.7,30.15,NNW,347,1.0,2.0,75,0.00,,---,0.00,VWS V14.01,2013-03-05 01:06:00,
2013-03-04 20:11:00,21.7,15.0,30.15,North,355,1.0,2.0,75,0.00,,---,0.00,VWS V14.01,2013-03-05 01:11:00,
2013-03-04 20:16:00,21.8,15.1,30.15,North,355,0.0,0.0,75,0.00,,---,0.00,VWS V14.01,2013-03-05 01:16:00,
2013-03-04 20:21:00,21.8,15.1,30.15,North,360,1.0,2.0,75,0.00,,---,0.00,VWS V14.01,2013-03-05 01:21:00,
2013-03-04 20:26:00,21.8,15.1,30.15,North,360,1.0,2.0,75,0.00,,---,0.00,VWS V14.01,2013-03-05 01:26:00,
2013-03-04 20:31:00,21.7,15.0,30.15,North,360,0.0,0.0,75,0.00,,---,0.00,VWS V14.01,2013-03-05 01:31:00,
2013-03-04 20:36:00,21.8,15.4,30.15,North,360,0.0,1.0,76,0.00,,---,0.00,VWS V14.01,2013-03-05 01:36:00,
2013-03-04 20:41:00,22.0,15.6,30.15,North,360,0.0,0.0,76,0.00,,---,0.00,VWS V14.01,2013-03-05 01:41:00,
2013-03-04 20:46:00,22.1,15.7,30.15,North,360,0.0,0.0,76,0.00,,---,0.00,VWS V14.01,2013-03-05 01:46:00,
2013-03-04 20:51:00,22.2,15.8,30.15,North,5,3.0,3.0,76,0.00,,---,0.00,VWS V14.01,2013-03-05 01:51:00,
2013-03-04 20:56:00,22.4,15.7,30.15,North,10,4.0,5.0,75,0.00,,---,0.00,VWS V14.01,2013-03-05 01:56:00,
2013-03-04 21:01:00,22.4,15.4,30.15,North,11,4.0,5.0,74,0.00,,---,0.00,VWS V14.01,2013-03-05 02:01:00,
2013-03-04 21:06:00,22.4,15.1,30.15,NNE,13,4.0,5.0,73,0.00,,---,0.00,VWS V14.01,2013-03-05 02:06:00,
2013-03-04 21:11:00,22.4,15.1,30.15,NNE,15,5.0,5.0,73,0.00,,---,0.00,VWS V14.01,2013-03-05 02:11:00,
2013-03-04 21:16:00,22.3,15.0,30.15,NNE,26,4.0,5.0,73,0.00,,---,0.00,VWS V14.01,2013-03-05 02:16:00,
2013-03-04 21:22:00,21.8,14.5,30.15,NE,40,4.0,5.0,73,0.00,,---,0.00,VWS V14.01,2013-03-05 02:22:00,
2013-03-04 21:27:00,21.3,14.0,30.15,NE,36,6.0,6.0,73,0.00,,---,0.00,VWS V14.01,2013-03-05 02:27:00,
2013-03-04 21:32:00,21.2,14.2,30.15,NE,36,5.0,6.0,74,0.00,,---,0.00,VWS V14.01,2013-03-05 02:32:00,
2013-03-04 21:37:00,21.2,13.9,30.15,NE,34,6.0,6.0,73,0.00,,---,0.00,VWS V14.01,2013-03-05 02:37:00,
2013-03-04 21:42:00,21.2,13.9,30.15,NE,34,6.0,6.0,73,0.00,,---,0.00,VWS V14.01,2013-03-05 02:42:00,
2013-03-04 21:47:00,21.2,13.9,30.15,NE,36,4.0,7.0,73,0.00,,---,0.00,VWS V14.01,2013-03-05 02:47:00,
2013-03-04 21:52:00,21.2,13.6,30.15,NE,51,3.0,5.0,72,0.00,,---,0.00,VWS V14.01,2013-03-05 02:52:00,
2013-03-04 21:57:00,21.9,14.3,30.15,NE,51,4.0,6.0,72,0.00,,---,0.00,VWS V14.01,2013-03-05 02:57:00,
2013-03-04 22:02:00,22.1,14.5,30.15,NE,52,4.0,5.0,72,0.00,,---,0.00,VWS V14.01,2013-03-05 03:02:00,
2013-03-04 22:07:00,22.2,14.2,30.15,NE,53,5.0,5.0,71,0.00,,---,0.00,VWS V14.01,2013-03-05 03:07:00,
2013-03-04 22:12:00,22.0,13.7,30.15,ENE,60,4.0,5.0,70,0.00,,---,0.00,VWS V14.01,2013-03-05 03:12:00,
2013-03-04 22:17:00,21.8,13.5,30.15,ENE,61,5.0,7.0,70,0.00,,---,0.00,VWS V14.01,2013-03-05 03:17:00,
2013-03-04 22:22:00,21.4,12.8,30.15,NE,51,5.0,7.0,69,0.00,,---,0.00,VWS V14.01,2013-03-05 03:22:00,
2013-03-04 22:27:00,21.0,12.8,30.16,NE,37,6.0,7.0,70,0.00,,---,0.00,VWS V14.01,2013-03-05 03:27:00,
2013-03-04 22:32:00,20.8,12.6,30.16,NE,56,5.0,6.0,70,0.00,,---,0.00,VWS V14.01,2013-03-05 03:32:00,
2013-03-04 22:37:00,20.5,12.6,30.16,ENE,63,4.0,6.0,71,0.00,,---,0.00,VWS V14.01,2013-03-05 03:37:00,
2013-03-04 22:42:00,20.4,12.5,30.16,ENE,58,4.0,5.0,71,0.00,,---,0.00,VWS V14.01,2013-03-05 03:42:00,
2013-03-04 22:47:00,20.4,12.5,30.16,ENE,57,4.0,5.0,71,0.00,,---,0.00,VWS V14.01,2013-03-05 03:47:00,
2013-03-04 22:52:00,20.6,12.4,30.16,ENE,57,5.0,6.0,70,0.00,,---,0.00,VWS V14.01,2013-03-05 03:52:00,
2013-03-04 22:57:00,20.7,12.1,30.16,NE,38,5.0,6.0,69,0.00,,---,0.00,VWS V14.01,2013-03-05 03:57:00,
2013-03-04 23:02:00,20.7,11.5,30.16,NE,52,5.0,7.0,67,0.00,,---,0.00,VWS V14.01,2013-03-05 04:02:00,
2013-03-04 23:07:00,20.7,11.5,30.16,NE,55,6.0,6.0,67,0.00,,---,0.00,VWS V14.01,2013-03-05 04:07:00,
2013-03-04 23:12:00,20.6,11.1,30.16,NE,40,5.0,6.0,66,0.00,,---,0.00,VWS V14.01,2013-03-05 04:12:00,
2013-03-04 23:17:00,20.6,11.4,30.16,NE,53,3.0,7.0,67,0.00,,---,0.00,VWS V14.01,2013-03-05 04:17:00,
2013-03-04 23:22:00,20.7,11.1,30.16,NE,46,2.0,5.0,66,0.00,,---,0.00,VWS V14.01,2013-03-05 04:22:00,
2013-03-04 23:27:00,20.4,10.9,30.16,NE,42,3.0,5.0,66,0.00,,---,0.00,VWS V14.01,2013-03-05 04:27:00,
2013-03-04 23:32:00,20.3,11.1,30.16,NE,42,4.0,5.0,67,0.00,,---,0.00,VWS V14.01,2013-03-05 04:32:00,
2013-03-04 23:37:00,20.2,11.0,30.16,NE,44,4.0,5.0,67,0.00,,---,0.00,VWS V14.01,2013-03-05 04:37:00,
2013-03-04 23:42:00,20.2,11.0,30.16,NE,44,2.0,4.0,67,0.00,,---,0.00,VWS V14.01,2013-03-05 04:42:00,
2013-03-04 23:47:00,20.6,11.4,30.16,NE,46,2.0,3.0,67,0.00,,---,0.00,VWS V14.01,2013-03-05 04:47:00,
2013-03-04 23:52:00,20.8,11.6,30.16,NE,46,2.0,3.0,67,0.00,,---,0.00,VWS V14.01,2013-03-05 04:52:00,
2013-03-04 23:57:00,20.9,11.7,30.16,NE,47,2.0,2.0,67,0.00,,---,0.00,VWS V14.01,2013-03-05 04:57:00,